When you browse on this site, cookies collect data to enhance your experience and personalize the content and advertising you see.
Visit our Privacy Policy to learn more. By continuing to use the site, you agree to this use of cookies and data.
  • en Suisse
  • Liste des pays
  • À 7 jours
  • Température de l'eau
  • Carte satellitaire
  • Carte météo
  • Widgets météo
  • user-avatar
    Se connecter

    Météo par heure à Xiulin

    Ce jour, 27 Mai, Lundi

    Heure Température Précipitation Vent Pression Humidité
    00:00 +25°C° 0 mm 0 m/s 751 mmHg 78%
    01:00 +24°C° 0 mm 0 m/s 751 mmHg 79%
    02:00 +26°C° 0 mm 1 m/s 751 mmHg 79%
    03:00 +26°C° 0 mm 1 m/s 752 mmHg 79%
    04:00 +26°C° 0 mm 1 m/s 752 mmHg 79%
    05:00 +27°C° 0 mm 3 m/s 753 mmHg 75%
    06:00 +28°C° 0 mm 4 m/s 754 mmHg 71%
    07:00 +29°C° 0 mm 6 m/s 754 mmHg 67%
    08:00 +29°C° 0 mm 7 m/s 755 mmHg 59%
    09:00 +31°C° 0 mm 8 m/s 755 mmHg 51%
    10:00 +32°C° 0 mm 9 m/s 755 mmHg 42%
    11:00 +32°C° 0 mm 9 m/s 755 mmHg 44%
    12:00 +33°C° 0 mm 9 m/s 755 mmHg 45%
    13:00 +33°C° 0 mm 8 m/s 755 mmHg 46%
    14:00 +33°C° 0 mm 8 m/s 755 mmHg 46%
    15:00 +33°C° 0 mm 7 m/s 755 mmHg 45%
    16:00 +33°C° 0 mm 7 m/s 755 mmHg 45%
    17:00 +30°C° 0 mm 6 m/s 755 mmHg 48%
    18:00 +29°C° 0 mm 5 m/s 755 mmHg 50%
    19:00 +27°C° 0 mm 4 m/s 756 mmHg 53%
    20:00 +27°C° 0 mm 4 m/s 756 mmHg 53%
    21:00 +26°C° 0 mm 4 m/s 757 mmHg 54%
    22:00 +25°C° 0 mm 4 m/s 758 mmHg 55%
    23:00 +25°C° 0 mm 4 m/s 758 mmHg 55%

    Demain, 28 Mai, Mardi

    Heure Température Précipitation Vent Pression Humidité
    00:00 +23°C° 0 mm 4 m/s 758 mmHg 54%
    01:00 +22°C° 0 mm 4 m/s 758 mmHg 54%
    02:00 +22°C° 0 mm 4 m/s 758 mmHg 56%
    03:00 +21°C° 0 mm 4 m/s 758 mmHg 58%
    04:00 +21°C° 0 mm 4 m/s 758 mmHg 61%
    05:00 +21°C° 0 mm 4 m/s 758 mmHg 61%
    06:00 +22°C° 0 mm 4 m/s 758 mmHg 62%
    07:00 +23°C° 0 mm 5 m/s 759 mmHg 63%
    08:00 +25°C° 0 mm 5 m/s 759 mmHg 59%
    09:00 +27°C° 0 mm 5 m/s 759 mmHg 55%
    10:00 +28°C° 0 mm 5 m/s 759 mmHg 50%
    11:00 +29°C° 0 mm 5 m/s 758 mmHg 44%
    12:00 +29°C° 0 mm 6 m/s 758 mmHg 37%
    13:00 +30°C° 0 mm 6 m/s 757 mmHg 31%
    14:00 +30°C° 0 mm 6 m/s 757 mmHg 32%
    15:00 +30°C° 0 mm 6 m/s 757 mmHg 33%
    16:00 +29°C° 0 mm 6 m/s 756 mmHg 34%
    17:00 +28°C° 0 mm 5 m/s 757 mmHg 38%
    18:00 +26°C° 0 mm 4 m/s 757 mmHg 42%
    19:00 +24°C° 0 mm 3 m/s 757 mmHg 46%
    20:00 +24°C° 0 mm 3 m/s 758 mmHg 48%
    21:00 +22°C° 0 mm 3 m/s 758 mmHg 50%
    22:00 +22°C° 0 mm 4 m/s 758 mmHg 52%
    23:00 +22°C° 0 mm 3 m/s 758 mmHg 53%

    Après-demain, 29 Mai, Mercredi

    Heure Température Précipitation Vent Pression Humidité
    00:00 +21°C° 0 mm 3 m/s 757 mmHg 53%
    01:00 +21°C° 0 mm 3 m/s 757 mmHg 54%
    02:00 +21°C° 0 mm 3 m/s 757 mmHg 55%
    03:00 +20°C° 0 mm 3 m/s 757 mmHg 56%
    04:00 +20°C° 0 mm 3 m/s 756 mmHg 57%
    05:00 +20°C° 0 mm 2 m/s 757 mmHg 59%
    06:00 +21°C° 0 mm 2 m/s 757 mmHg 60%
    07:00 +21°C° 0 mm 2 m/s 757 mmHg 62%
    08:00 +23°C° 0 mm 2 m/s 757 mmHg 59%
    09:00 +24°C° 0 mm 2 m/s 757 mmHg 56%
    10:00 +25°C° 0 mm 2 m/s 757 mmHg 52%
    11:00 +26°C° 0 mm 2 m/s 756 mmHg 49%
    12:00 +27°C° 0 mm 2 m/s 756 mmHg 47%
    13:00 +28°C° 0 mm 2 m/s 755 mmHg 44%
    14:00 +27°C° 0 mm 2 m/s 755 mmHg 48%
    15:00 +26°C° 0 mm 2 m/s 754 mmHg 51%
    16:00 +26°C° 0 mm 2 m/s 754 mmHg 55%
    17:00 +25°C° 0 mm 1 m/s 754 mmHg 55%
    18:00 +25°C° 0 mm 1 m/s 754 mmHg 56%
    19:00 +24°C° 0 mm 1 m/s 754 mmHg 56%
    20:00 +24°C° 0 mm 1 m/s 754 mmHg 56%
    21:00 +24°C° 0 mm 1 m/s 755 mmHg 55%
    22:00 +21°C° 0 mm 0 m/s 755 mmHg 54%
    23:00 +21°C° 0 mm 0 m/s 755 mmHg 55%

    30 Mai, Jeudi

    Heure Température Précipitation Vent Pression Humidité
    00:00 +21°C° 0 mm 0 m/s 754 mmHg 55%
    01:00 +21°C° 0 mm 0 m/s 754 mmHg 55%
    02:00 +21°C° 0 mm 0 m/s 754 mmHg 57%
    03:00 +21°C° 0 mm 0 m/s 754 mmHg 58%
    04:00 +20°C° 0 mm 0 m/s 753 mmHg 60%
    05:00 +23°C° 0 mm 1 m/s 754 mmHg 59%
    06:00 +24°C° 0 mm 1 m/s 754 mmHg 58%
    07:00 +25°C° 0 mm 1 m/s 754 mmHg 57%
    08:00 +27°C° 0 mm 2 m/s 754 mmHg 55%
    09:00 +28°C° 0 mm 2 m/s 754 mmHg 54%
    10:00 +30°C° 0 mm 3 m/s 754 mmHg 52%
    11:00 +30°C° 0 mm 3 m/s 754 mmHg 52%
    12:00 +31°C° 0 mm 3 m/s 753 mmHg 52%
    13:00 +33°C° 0 mm 3 m/s 753 mmHg 52%
    14:00 +31°C° 0 mm 3 m/s 752 mmHg 55%
    15:00 +30°C° 0 mm 2 m/s 752 mmHg 59%
    16:00 +29°C° 0 mm 2 m/s 752 mmHg 63%
    17:00 +28°C° 0 mm 2 m/s 752 mmHg 67%
    18:00 +27°C° 0 mm 2 m/s 753 mmHg 71%
    19:00 +26°C° 0 mm 2 m/s 753 mmHg 75%
    20:00 +25°C° 0 mm 1 m/s 753 mmHg 76%
    21:00 +25°C° 0 mm 1 m/s 754 mmHg 77%
    22:00 +25°C° 0 mm 1 m/s 754 mmHg 77%
    23:00 +25°C° 0 mm 1 m/s 754 mmHg 78%

    31 Mai, Vendredi

    Heure Température Précipitation Vent Pression Humidité
    00:00 +24°C° 0 mm 1 m/s 754 mmHg 79%
    01:00 +24°C° 0 mm 1 m/s 754 mmHg 80%
    02:00 +24°C° 0 mm 1 m/s 754 mmHg 80%
    03:00 +24°C° 0 mm 1 m/s 754 mmHg 81%
    04:00 +23°C° 0 mm 1 m/s 753 mmHg 81%
    05:00 +25°C° 0 mm 1 m/s 754 mmHg 77%
    06:00 +26°C° 0 mm 1 m/s 754 mmHg 73%
    07:00 +27°C° 0 mm 2 m/s 755 mmHg 69%
    08:00 +28°C° 0 mm 2 m/s 755 mmHg 64%
    09:00 +30°C° 0 mm 2 m/s 755 mmHg 59%
    10:00 +31°C° 0 mm 3 m/s 754 mmHg 54%
    11:00 +33°C° 0 mm 3 m/s 754 mmHg 52%
    12:00 +33°C° 0 mm 3 m/s 753 mmHg 51%
    13:00 +34°C° 0 mm 4 m/s 752 mmHg 49%
    14:00 +33°C° 0.1 mm 4 m/s 752 mmHg 51%
    15:00 +33°C° 0.1 mm 4 m/s 752 mmHg 53%
    16:00 +33°C° 0.1 mm 4 m/s 752 mmHg 55%
    17:00 +32°C° 0.1 mm 4 m/s 752 mmHg 58%
    18:00 +29°C° 0.1 mm 4 m/s 752 mmHg 62%
    19:00 +28°C° 0.1 mm 3 m/s 753 mmHg 66%
    20:00 +27°C° 0 mm 3 m/s 753 mmHg 65%
    21:00 +26°C° 0 mm 2 m/s 753 mmHg 63%
    22:00 +26°C° 0 mm 2 m/s 753 mmHg 62%
    23:00 +25°C° 0 mm 1 m/s 753 mmHg 62%

    1 Juin, Samedi

    Heure Température Précipitation Vent Pression Humidité
    00:00 +25°C° 0 mm 1 m/s 753 mmHg 63%
    01:00 +25°C° 0 mm 1 m/s 752 mmHg 63%
    02:00 +24°C° 0 mm 1 m/s 752 mmHg 65%
    03:00 +24°C° 0 mm 1 m/s 752 mmHg 67%
    04:00 +24°C° 0 mm 1 m/s 752 mmHg 68%
    05:00 +24°C° 0 mm 1 m/s 752 mmHg 68%
    06:00 +24°C° 0 mm 1 m/s 752 mmHg 68%
    07:00 +23°C° 0 mm 0 m/s 753 mmHg 68%
    08:00 +25°C° 0.1 mm 1 m/s 752 mmHg 68%
    09:00 +25°C° 0.1 mm 1 m/s 752 mmHg 69%
    10:00 +25°C° 0.1 mm 2 m/s 752 mmHg 69%
    11:00 +26°C° 0.1 mm 2 m/s 752 mmHg 67%
    12:00 +27°C° 0.1 mm 2 m/s 751 mmHg 64%
    13:00 +28°C° 0.1 mm 3 m/s 751 mmHg 61%
    14:00 +28°C° 0 mm 3 m/s 750 mmHg 63%
    15:00 +28°C° 0 mm 3 m/s 750 mmHg 65%
    16:00 +27°C° 0 mm 3 m/s 750 mmHg 67%
    17:00 +26°C° 0 mm 3 m/s 750 mmHg 73%
    18:00 +25°C° 0 mm 3 m/s 750 mmHg 79%
    19:00 +22°C° 0 mm 3 m/s 750 mmHg 84%
    20:00 +23°C° 0 mm 2 m/s 750 mmHg 85%
    21:00 +23°C° 0 mm 2 m/s 750 mmHg 86%
    22:00 +21°C° 0 mm 2 m/s 751 mmHg 87%
    23:00 +21°C° 0 mm 2 m/s 750 mmHg 87%
    Voir plus